Regional Weather Roundup
Issued by NWS

Home | Current Version | Previous Version | Text Only | Print | Product List | Glossary On
Versions: 1 2 3 4 5 6 7 8 9 10 11 12 13 14 15 16 17 18 19 20 21 22 23 24 25 26 27 28 29 30 31 32 33 34 35 36 37 38 39 40 41 42 43 44 45 46 47 48 49 50
000
ASUS45 KPSR 231100
RWRAZ

ARIZONA HOURLY REGIONAL WEATHER ROUNDUP
NATIONAL WEATHER SERVICE PHOENIX AZ
400 AM MST SAT MAY 23 2015

NOTE: FAIR INDICATES FEW OR NO CLOUDS BELOW 12,000 FEET WITH NO
SIGNIFICANT WEATHER AND/OR OBSTRUCTIONS TO VISIBILITY.

AZZ001>003-036-231200-
NORTHWEST ARIZONA

CITY           SKY/WX    TMP DP  RH WIND       PRES   REMARKS
KINGMAN        PTCLDY    48  39  71 SE10      29.97S
$$

AZZ004>008-015-016-018-231200-
NORTH CENTRAL ARIZONA

CITY           SKY/WX    TMP DP  RH WIND       PRES   REMARKS
GRAND CANYON   CLOUDY    33  33 100 CALM      30.04S
WILLIAMS       MOCLDY    37  34  87 SW3       30.11S
PRESCOTT       MOCLDY    49  34  56 S3        30.02F
FLAGSTAFF      NOT AVBL
PAYSON         CLEAR     45  32  61 E5        30.04S
PAGE           CLOUDY    49  39  68 S5        29.97S
$$

AZZ009>014-017-231200-
NORTHEAST ARIZONA

CITY           SKY/WX    TMP DP  RH WIND       PRES   REMARKS
WINSLOW        NOT AVBL
SAINT JOHNS    MOCLDY    41  31  67 SE5       30.04S
WINDOW ROCK    PTCLDY    34  25  69 NE5       30.06S WCI  30
$$

AZZ023-231200-
GREATER PHOENIX AREA

CITY           SKY/WX    TMP DP  RH WIND       PRES   REMARKS
PHOENIX        CLEAR     67  38  34 W5        29.93R
BUCKEYE          N/A     55  39  54 CALM      29.95R
LUKE AFB       CLEAR     62  40  44 S12       29.93R
DEER VALLEY    CLEAR     60  40  47 S3        29.94R
SCOTTSDALE     CLEAR     63  40  42 CALM      29.96R
$$

AZZ027-028-231200-
SOUTHWEST MARICOPA COUNTY AND PINAL COUNTY

CITY           SKY/WX    TMP DP  RH WIND       PRES   REMARKS
CASA GRANDE    CLEAR     57  37  47 CALM      29.95R
GILA BEND      FAIR      60  43  52 S7        29.95R
$$

AZZ503-504-507>509-231200-
SOUTHEAST ARIZONA

CITY           SKY/WX    TMP DP  RH WIND       PRES   REMARKS
TUCSON         CLEAR     56  33  42 W5        30.01R
DAVIS-MONTHAN  CLEAR     53  31  44 W3        29.99R
NOGALES        CLEAR     45  29  53 NE3       30.02S
SIERRA VISTA   CLEAR     48  34  59 VRB1      30.04S
SAFFORD        CLEAR     56  36  47 NW8       29.97R
$$

AZZ020-021-025-026-031-231200-
SOUTHWEST ARIZONA

CITY           SKY/WX    TMP DP  RH WIND       PRES   REMARKS
YUMA           NOT AVBL
$$

CAZ031-033-041-043-047-048-061-231200-
SOUTHERN CALIFORNIA

CITY           SKY/WX    TMP DP  RH WIND       PRES   REMARKS
DOWNTOWN L.A.  CLOUDY    59  53  80 CALM      30.05S
L.A. AIRPORT   PTCLDY    57  54  89 W5        30.06S
SAN DIEGO      MOCLDY    62  54  74 W5        30.09S
BURBANK        PTCLDY    58  51  78 SE3       30.04S
ONTARIO        LGT RAIN  56  52  86 W3        30.06S
RIVERSIDE      CLOUDY    58  52  80 CALM      30.06S
PALM SPRINGS   CLEAR     63  46  54 CALM      29.96R
EL CENTRO NAS  CLEAR     63  44  50 W16       29.97S
IMPERIAL       CLEAR     62  45  53 W10       29.95R
BLYTHE         CLEAR     59  47  64 CALM      29.92R
$$

NVZ020-UTZ003-231200-
SOUTHERN NEVADA-UTAH

CITY           SKY/WX    TMP DP  RH WIND       PRES   REMARKS
LAS VEGAS      NOT AVBL
SALT LAKE CITY LGT RAIN  50  47  89 S9        29.93R
$$

NMZ009-TXZ055-231200-
NEW MEXICO-WEST TEXAS

CITY           SKY/WX    TMP DP  RH WIND       PRES   REMARKS
ALBUQUERQUE    MOCLDY    52  31  44 SE3       30.01S
EL PASO        CLOUDY    69  24  18 N6        29.97R
$$


........................KEY........................
SKY/WX - SKY CONDITION/WEATHER
TMP    - TEMPERATURE IN FAHRENHEIT
DP     - DEW POINT IN FAHRENHEIT
RH     - RELATIVE HUMIDITY IN PERCENT
WIND   - DIRECTION AND SPEED IN MILES PER HOUR (MPH)
VRB    - VARIABLE WIND DIRECTION
PRES   - MEAN SEA LEVEL PRESSURE IN INCHES OF MERCURY
         F - FALLING PRESSURE   R - RISING PRESSURE
         S - STEADY PRESSURE
VSB    - VISIBILITY IN MILES
HX     - HEAT INDEX IN FAHRENHEIT
WCI    - WIND CHILL INDEX IN FAHRENHEIT
TC     - TEMPERATURE IN CELSIUS WHICH IS ALSO KNOWN AS
         TEMPERATURE IN CENTIGRADE
AFB    - AIR FORCE BASE
         LUKE AFB IS LUKE AIR FORCE BASE
         DAVIS-MONTHAN IS DAVIS-MONTHAN AIR FORCE BASE
NAS    - NAVAL AIR STATION
         EL CENTRO NAS IS EL CENTRO NAVAL AIR STATION
N/A    - NOT AVAILABLE




USA.gov is the U.S. government's official web portal to all federal, state and local government web resources and services.